| time (UTC) | temp C | wind direction | speed KPH | gust KPH | rain 1hr cm | rain 24hr cm | rain mn cm | humidity % | barometer mb |
| 20260901015137 | 18 | 155 | 0.0 | 0.0 | 0.00 | 0.23 | 0.23 | 99 | 1016.6 |
| 20260901014632 | 18 | 155 | 0.0 | 0.0 | 0.00 | 0.23 | 0.23 | 99 | 1016.5 |
| 20260901014128 | 18 | 155 | 0.0 | 0.0 | 0.00 | 0.23 | 0.23 | 99 | 1016.8 |
| 20260901013624 | 18 | 166 | 0.0 | 0.0 | 0.00 | 0.23 | 0.23 | 99 | 1016.8 |
| 20260901013119 | 18 | 166 | 0.0 | 0.0 | 0.00 | 0.23 | 0.23 | 99 | 1016.7 |
| 20260901012619 | 18 | 166 | 0.0 | 0.0 | 0.00 | 0.23 | 0.23 | 99 | 1016.6 |
| 20260901012114 | 18 | 166 | 0.0 | 0.0 | 0.00 | 0.23 | 0.23 | 99 | 1016.7 |
| 20260901011611 | 18 | 155 | 0.0 | 0.0 | 0.00 | 0.23 | 0.23 | 99 | 1016.5 |
| 20260901011109 | 18 | 155 | 0.0 | 0.0 | 0.00 | 0.23 | 0.23 | 99 | 1016.7 |
| 20260901010604 | 18 | 155 | 0.0 | 0.0 | 0.00 | 0.23 | 0.23 | 99 | 1016.7 |
| 20260901005558 | 18 | 155 | 0.0 | 0.0 | 0.00 | 0.23 | 0.23 | 99 | 1016.5 |
| 20260901005053 | 18 | 155 | 0.0 | 0.0 | 0.00 | 0.23 | 0.23 | 99 | 1016.6 |
| 20260901004552 | 18 | 155 | 0.0 | 0.0 | 0.00 | 0.23 | 0.23 | 99 | 1016.6 |
| 20260901004047 | 18 | 155 | 0.0 | 0.0 | 0.00 | 0.23 | 0.23 | 99 | 1016.6 |
| 20260901003542 | 18 | 155 | 0.0 | 0.0 | 0.00 | 0.23 | 0.23 | 99 | 1016.8 |
| 20260901003040 | 18 | 155 | 0.0 | 0.0 | 0.00 | 0.23 | 0.23 | 99 | 1016.7 |
| 20260901002540 | 18 | 154 | 0.0 | 0.0 | 0.00 | 0.23 | 0.23 | 99 | 1016.6 |
| 20260901002035 | 18 | 154 | 0.0 | 0.0 | 0.00 | 0.23 | 0.23 | 99 | 1016.6 |
| 20260901001530 | 18 | 154 | 0.0 | 0.0 | 0.00 | 0.23 | 0.23 | 99 | 1016.6 |
| 20260901001025 | 18 | 154 | 0.0 | 0.0 | 0.00 | 0.23 | 0.23 | 99 | 1016.6 |
| 20260901000526 | 18 | 154 | 1.6 | 1.6 | 0.00 | 0.23 | 0.23 | 99 | 1016.6 |
| 20260901000021 | 18 | 154 | 0.0 | 0.0 | 0.00 | 0.23 | 0.23 | 99 | 1016.6 |
| 20260831235515 | 18 | 154 | 0.0 | 0.0 | 0.18 | 0.23 | 0.23 | 99 | 1016.6 |
| 20260831235011 | 18 | 154 | 0.0 | 0.0 | 0.18 | 0.23 | 0.23 | 99 | 1016.6 |
| 20260831234505 | 18 | 154 | 0.0 | 0.0 | 0.18 | 0.23 | 0.23 | 99 | 1016.7 |
| 20260831234001 | 18 | 154 | 0.0 | 0.0 | 0.00 | 0.20 | 0.20 | 99 | 1016.6 |
| 20260831233455 | 18 | 154 | 0.0 | 0.0 | 0.00 | 0.20 | 0.20 | 99 | 1016.6 |
| 20260831232951 | 18 | 154 | 0.0 | 0.0 | 0.00 | 0.20 | 0.20 | 99 | 1016.7 |
| 20260831232447 | 18 | 154 | 0.0 | 0.0 | 0.00 | 0.20 | 0.20 | 99 | 1016.6 |
| 20260831231942 | 18 | 187 | 0.0 | 1.6 | 0.00 | 0.20 | 0.20 | 99 | 1017.0 |
| 20260831231439 | 18 | 187 | 0.0 | 0.0 | 0.13 | 0.20 | 0.20 | 99 | 1016.9 |
| 20260831230934 | 19 | 187 | 0.0 | 0.0 | 0.13 | 0.20 | 0.20 | 99 | 1016.7 |
| 20260831230429 | 19 | 191 | 0.0 | 0.0 | 0.00 | 0.18 | 0.18 | 99 | 1016.8 |
| 20260831225923 | 19 | 191 | 0.0 | 0.0 | 0.00 | 0.18 | 0.18 | 99 | 1017.0 |
| 20260831225419 | 19 | 191 | 0.0 | 0.0 | 0.00 | 0.18 | 0.18 | 99 | 1017.1 |
| 20260831224914 | 19 | 191 | 0.0 | 0.0 | 0.00 | 0.18 | 0.18 | 99 | 1017.2 |
| 20260831224413 | 19 | 191 | 0.0 | 0.0 | 0.00 | 0.18 | 0.18 | 99 | 1016.8 |
| 20260831223908 | 19 | 191 | 0.0 | 0.0 | 0.00 | 0.18 | 0.18 | 99 | 1016.9 |
| 20260831223404 | 19 | 191 | 0.0 | 0.0 | 0.00 | 0.18 | 0.18 | 99 | 1017.0 |
| 20260831222901 | 19 | 191 | 0.0 | 0.0 | 0.00 | 0.18 | 0.18 | 99 | 1016.9 |
| 20260831222356 | 19 | 191 | 0.0 | 0.0 | 0.00 | 0.18 | 0.18 | 99 | 1017.1 |
| 20260831221851 | 19 | 191 | 0.0 | 0.0 | 0.00 | 0.18 | 0.18 | 99 | 1017.1 |
| 20260831221347 | 19 | 191 | 0.0 | 0.0 | 0.00 | 0.18 | 0.18 | 99 | 1017.1 |
| 20260831220841 | 19 | 191 | 0.0 | 0.0 | 0.00 | 0.18 | 0.18 | 99 | 1017.1 |
| 20260831220337 | 19 | 191 | 0.0 | 0.0 | 0.00 | 0.18 | 0.18 | 99 | 1017.0 |
| 20260831215832 | 19 | 191 | 0.0 | 0.0 | 0.00 | 0.18 | 0.18 | 99 | 1017.2 |
| 20260831215328 | 19 | 191 | 0.0 | 0.0 | 0.00 | 0.18 | 0.18 | 99 | 1017.2 |
| 20260831214824 | 19 | 191 | 0.0 | 0.0 | 0.00 | 0.18 | 0.18 | 99 | 1017.1 |
| 20260831214322 | 20 | 191 | 0.0 | 0.0 | 0.00 | 0.18 | 0.18 | 99 | 1017.1 |
| 20260831213816 | 20 | 192 | 0.0 | 0.0 | 0.00 | 0.18 | 0.18 | 99 | 1017.1 |
| 20260831213313 | 20 | 149 | 0.0 | 1.6 | 0.00 | 0.18 | 0.18 | 99 | 1017.0 |
| 20260831212808 | 20 | 149 | 0.0 | 0.0 | 0.00 | 0.18 | 0.18 | 99 | 1017.2 |
| 20260831212306 | 20 | 166 | 0.0 | 1.6 | 0.00 | 0.18 | 0.18 | 99 | 1017.1 |
| 20260831211803 | 20 | 172 | 1.6 | 1.6 | 0.00 | 0.18 | 0.18 | 99 | 1017.2 |
| 20260831211258 | 20 | 138 | 1.6 | 1.6 | 0.00 | 0.18 | 0.18 | 99 | 1017.3 |
| 20260831210752 | 20 | 206 | 3.2 | 3.2 | 0.00 | 0.18 | 0.18 | 99 | 1017.2 |
| 20260831210249 | 20 | 215 | 0.0 | 0.0 | 0.00 | 0.18 | 0.18 | 99 | 1017.2 |
| 20260831205748 | 20 | 215 | 0.0 | 0.0 | 0.00 | 0.18 | 0.18 | 99 | 1017.1 |
| 20260831205244 | 20 | 215 | 0.0 | 0.0 | 0.00 | 0.18 | 0.18 | 99 | 1017.3 |
| 20260831204743 | 20 | 222 | 1.6 | 1.6 | 0.00 | 0.18 | 0.18 | 99 | 1017.2 |
| 20260831204243 | 20 | 222 | 1.6 | 1.6 | 0.00 | 0.18 | 0.18 | 99 | 1017.3 |
| 20260831203742 | 20 | 222 | 0.0 | 0.0 | 0.00 | 0.18 | 0.18 | 98 | 1017.4 |
| 20260831203237 | 20 | 222 | 0.0 | 1.6 | 0.00 | 0.18 | 0.18 | 98 | 1017.3 |
| 20260831202735 | 20 | 222 | 0.0 | 1.6 | 0.00 | 0.18 | 0.18 | 98 | 1017.6 |
| 20260831202231 | 20 | 216 | 1.6 | 1.6 | 0.00 | 0.18 | 0.18 | 98 | 1017.5 |
| 20260831201725 | 20 | 210 | 0.0 | 1.6 | 0.00 | 0.18 | 0.18 | 99 | 1017.6 |
| 20260831201224 | 20 | 210 | 0.0 | 0.0 | 0.00 | 0.18 | 0.18 | 99 | 1017.5 |
| 20260831200720 | 20 | 217 | 3.2 | 3.2 | 0.00 | 0.18 | 0.18 | 99 | 1017.5 |
| 20260831200220 | 20 | 196 | 0.0 | 0.0 | 0.00 | 0.18 | 0.18 | 99 | 1017.5 |
| 20260831195716 | 20 | 179 | 0.0 | 1.6 | 0.00 | 0.18 | 0.18 | 99 | 1017.5 |
| 20260831195211 | 20 | 179 | 0.0 | 0.0 | 0.00 | 0.18 | 0.18 | 99 | 1017.6 |
| 20260831194706 | 19 | 203 | 1.6 | 1.6 | 0.00 | 0.18 | 0.18 | 99 | 1017.7 |
| 20260831194202 | 20 | 115 | 0.0 | 0.0 | 0.00 | 0.18 | 0.18 | 99 | 1017.7 |
| 20260831193655 | 19 | 115 | 0.0 | 0.0 | 0.18 | 0.18 | 0.18 | 99 | 1017.9 |
| 20260831193151 | 19 | 115 | 0.0 | 0.0 | 0.18 | 0.18 | 0.18 | 99 | 1017.9 |
| 20260831192646 | 19 | 115 | 0.0 | 0.0 | 0.00 | 0.15 | 0.15 | 99 | 1018.0 |
| 20260831192141 | 19 | 116 | 0.0 | 0.0 | 0.00 | 0.15 | 0.15 | 99 | 1018.1 |
| 20260831191637 | 19 | 116 | 0.0 | 0.0 | 0.00 | 0.15 | 0.15 | 99 | 1018.1 |
| 20260831191133 | 19 | 115 | 0.0 | 0.0 | 0.00 | 0.15 | 0.15 | 99 | 1018.0 |
| 20260831190628 | 19 | 115 | 0.0 | 0.0 | 0.13 | 0.15 | 0.15 | 99 | 1018.3 |
| 20260831190126 | 19 | 116 | 0.0 | 0.0 | 0.13 | 0.15 | 0.15 | 99 | 1018.3 |
| 20260831185622 | 19 | 116 | 0.0 | 0.0 | 0.00 | 0.13 | 0.13 | 99 | 1018.5 |
| 20260831185118 | 19 | 116 | 0.0 | 0.0 | 0.18 | 0.13 | 0.13 | 99 | 1018.6 |
| 20260831184617 | 19 | 116 | 0.0 | 0.0 | 0.18 | 0.13 | 0.13 | 99 | 1018.6 |
| 20260831184113 | 19 | 115 | 0.0 | 0.0 | 0.18 | 0.13 | 0.13 | 99 | 1018.7 |
| 20260831183607 | 19 | 115 | 0.0 | 0.0 | 0.13 | 0.10 | 0.10 | 98 | 1018.6 |
| 20260831183107 | 20 | 115 | 0.0 | 0.0 | 0.13 | 0.10 | 0.10 | 98 | 1018.7 |
| 20260831182606 | 20 | 115 | 0.0 | 0.0 | 0.00 | 0.08 | 0.08 | 98 | 1018.5 |
| 20260831182102 | 20 | 115 | 0.0 | 0.0 | 0.18 | 0.08 | 0.08 | 98 | 1018.9 |
| 20260831181601 | 20 | 115 | 0.0 | 0.0 | 0.30 | 0.08 | 0.08 | 96 | 1018.9 |
| 20260831181056 | 20 | 115 | 0.0 | 0.0 | 0.30 | 0.05 | 0.05 | 96 | 1018.6 |
| 20260831180551 | 20 | 115 | 1.6 | 1.6 | 0.18 | 0.03 | 0.03 | 94 | 1018.9 |
| 20260831180047 | 20 | 115 | 0.0 | 0.0 | 0.00 | 0.00 | 0.00 | 92 | 1019.0 |
| 20260831175541 | 21 | 115 | 0.0 | 0.0 | 0.00 | 0.00 | 0.00 | 92 | 1019.0 |
| 20260831175038 | 21 | 115 | 0.0 | 0.0 | 0.00 | 0.00 | 0.00 | 90 | 1018.9 |
| 20260831174532 | 21 | 115 | 0.0 | 0.0 | 0.00 | 0.00 | 0.00 | 89 | 1018.9 |
| 20260831174026 | 21 | 115 | 0.0 | 0.0 | 0.00 | 0.00 | 0.00 | 90 | 1018.7 |
| 20260831173525 | 21 | 115 | 0.0 | 0.0 | 0.00 | 0.00 | 0.00 | 88 | 1018.9 |
| 20260831173021 | 21 | 115 | 0.0 | 0.0 | 0.00 | 0.00 | 0.00 | 88 | 1018.7 |
| 20260831172516 | 21 | 120 | 1.6 | 1.6 | 0.00 | 0.00 | 0.00 | 87 | 1018.9 |
| 20260831172011 | 22 | 153 | 0.0 | 0.0 | 0.00 | 0.00 | 0.00 | 86 | 1018.7 |
| 20260831171507 | 21 | 121 | 1.6 | 1.6 | 0.00 | 0.00 | 0.00 | 87 | 1018.7 |
| 20260831171004 | 21 | 132 | 0.0 | 1.6 | 0.00 | 0.00 | 0.00 | 87 | 1018.9 |
| 20260831170459 | 21 | 132 | 0.0 | 0.0 | 0.00 | 0.00 | 0.00 | 89 | 1018.6 |
| 20260831165956 | 21 | 132 | 0.0 | 0.0 | 0.00 | 0.00 | 0.00 | 90 | 1019.0 |
| 20260831165456 | 21 | 132 | 0.0 | 1.6 | 0.00 | 0.00 | 0.00 | 89 | 1019.1 |
| 20260831164953 | 21 | 132 | 0.0 | 0.0 | 0.00 | 0.00 | 0.00 | 90 | 1019.0 |
| 20260831164449 | 21 | 132 | 0.0 | 0.0 | 0.00 | 0.00 | 0.00 | 89 | 1018.7 |
| 20260831163944 | 21 | 134 | 0.0 | 0.0 | 0.00 | 0.00 | 0.00 | 91 | 1019.0 |
| 20260831163439 | 21 | 134 | 0.0 | 0.0 | 0.00 | 0.00 | 0.00 | 91 | 1019.1 |
| 20260831161632 | 21 | 130 | 0.0 | 0.0 | 0.00 | 0.00 | 0.00 | 85 | 1019.3 |
| 20260831161128 | 21 | 130 | 0.0 | 0.0 | 0.00 | 0.00 | 0.00 | 85 | 1019.3 |
| 20260831160626 | 21 | 130 | 0.0 | 0.0 | 0.00 | 0.00 | 0.00 | 84 | 1019.2 |
| 20260831160122 | 21 | 130 | 0.0 | 1.6 | 0.00 | 0.00 | 0.00 | 86 | 1019.1 |
| 20260831154858 | 21 | 146 | 0.0 | 0.0 | 0.00 | 0.00 | 0.00 | 87 | 1019.1 |
| 20260831154355 | 21 | 146 | 0.0 | 0.0 | 0.00 | 0.00 | 0.00 | 87 | 1019.1 |
| 20260831153852 | 21 | 131 | 0.0 | 0.0 | 0.00 | 0.00 | 0.00 | 86 | 1019.1 |
| 20260831151520 | 21 | 194 | 1.6 | 1.6 | 0.00 | 0.00 | 0.00 | 86 | 1019.2 |
| 20260831151020 | 21 | 194 | 1.6 | 1.6 | 0.00 | 0.00 | 0.00 | 86 | 1019.2 |
| 20260831150515 | 21 | 224 | 3.2 | 4.8 | 0.00 | 0.00 | 0.00 | 86 | 1019.4 |
| 20260831150011 | 21 | 131 | 1.6 | 3.2 | 0.00 | 0.00 | 0.00 | 86 | 1019.2 |
| 20260831145505 | 21 | 193 | 0.0 | 1.6 | 0.00 | 0.00 | 0.00 | 85 | 1019.3 |
| 20260831145001 | 21 | 129 | 0.0 | 1.6 | 0.00 | 0.00 | 0.00 | 85 | 1019.3 |
| 20260831144456 | 21 | 165 | 0.0 | 0.0 | 0.00 | 0.00 | 0.00 | 85 | 1019.3 |
| 20260831143952 | 20 | 164 | 0.0 | 0.0 | 0.00 | 0.00 | 0.00 | 90 | 1019.2 |
| 20260831143446 | 20 | 209 | 0.0 | 1.6 | 0.00 | 0.00 | 0.00 | 88 | 1019.4 |
| 20260831142942 | 20 | 209 | 0.0 | 0.0 | 0.00 | 0.00 | 0.00 | 89 | 1019.4 |
| 20260831142438 | 20 | 209 | 0.0 | 1.6 | 0.00 | 0.00 | 0.00 | 90 | 1019.6 |
| 20260831141937 | 20 | 209 | 0.0 | 1.6 | 0.00 | 0.00 | 0.00 | 90 | 1019.3 |
| 20260831141432 | 20 | 208 | 0.0 | 0.0 | 0.00 | 0.00 | 0.00 | 89 | 1019.3 |
| 20260831140927 | 20 | 208 | 0.0 | 1.6 | 0.00 | 0.00 | 0.00 | 89 | 1019.3 |
| 20260831140426 | 20 | 204 | 0.0 | 1.6 | 0.00 | 0.00 | 0.00 | 90 | 1019.0 |
| 20260831135926 | 20 | 200 | 0.0 | 1.6 | 0.00 | 0.00 | 0.00 | 90 | 1019.3 |
| 20260831135425 | 19 | 200 | 0.0 | 0.0 | 0.00 | 0.00 | 0.00 | 93 | 1019.5 |
| 20260831134920 | 19 | 186 | 1.6 | 3.2 | 0.00 | 0.00 | 0.00 | 93 | 1019.5 |
| 20260831134417 | 19 | 167 | 0.0 | 0.0 | 0.00 | 0.00 | 0.00 | 93 | 1019.3 |
| 20260831133916 | 18 | 187 | 0.0 | 1.6 | 0.00 | 0.00 | 0.00 | 94 | 1019.2 |
| 20260831133411 | 18 | 167 | 0.0 | 0.0 | 0.00 | 0.00 | 0.00 | 95 | 1019.4 |
| 20260831132906 | 18 | 204 | 1.6 | 3.2 | 0.00 | 0.00 | 0.00 | 95 | 1019.3 |
| 20260831132401 | 18 | 212 | 3.2 | 3.2 | 0.00 | 0.00 | 0.00 | 95 | 1019.2 |
| 20260831131901 | 18 | 198 | 1.6 | 1.6 | 0.00 | 0.00 | 0.00 | 97 | 1019.0 |
| 20260831131356 | 18 | 195 | 1.6 | 1.6 | 0.00 | 0.00 | 0.00 | 97 | 1019.3 |
| 20260831130852 | 18 | 191 | 1.6 | 1.6 | 0.00 | 0.00 | 0.00 | 96 | 1019.3 |
| 20260831130348 | 18 | 107 | 0.0 | 1.6 | 0.00 | 0.00 | 0.00 | 95 | 1019.2 |
| 20260831125846 | 18 | 177 | 0.0 | 0.0 | 0.00 | 0.00 | 0.00 | 96 | 1019.0 |
| 20260831125342 | 17 | 177 | 1.6 | 1.6 | 0.00 | 0.00 | 0.00 | 97 | 1019.1 |
| 20260831124842 | 17 | 170 | 0.0 | 1.6 | 0.00 | 0.00 | 0.00 | 96 | 1019.3 |
| 20260831124339 | 17 | 170 | 0.0 | 0.0 | 0.00 | 0.00 | 0.00 | 98 | 1019.5 |
| 20260831123838 | 17 | 198 | 0.0 | 0.0 | 0.00 | 0.00 | 0.00 | 99 | 1019.5 |
| 20260831123337 | 17 | 198 | 0.0 | 0.0 | 0.00 | 0.00 | 0.00 | 99 | 1019.3 |
| 20260831122832 | 16 | 198 | 0.0 | 0.0 | 0.00 | 0.00 | 0.00 | 99 | 1019.3 |
| 20260831122328 | 16 | 198 | 0.0 | 0.0 | 0.00 | 0.00 | 0.00 | 99 | 1019.3 |
| 20260831121828 | 16 | 198 | 0.0 | 0.0 | 0.00 | 0.00 | 0.00 | 99 | 1019.4 |
| 20260831121324 | 16 | 185 | 1.6 | 1.6 | 0.00 | 0.00 | 0.00 | 99 | 1019.4 |
| 20260831120820 | 16 | 184 | 0.0 | 0.0 | 0.00 | 0.00 | 0.00 | 99 | 1019.2 |
| 20260831120314 | 16 | 175 | 1.6 | 1.6 | 0.00 | 0.00 | 0.00 | 99 | 1019.1 |
| 20260831115809 | 16 | 174 | 0.0 | 0.0 | 0.00 | 0.00 | 0.00 | 99 | 1019.3 |
| 20260831115306 | 16 | 174 | 0.0 | 0.0 | 0.00 | 0.00 | 0.00 | 99 | 1019.0 |
| 20260831114804 | 16 | 174 | 0.0 | 0.0 | 0.00 | 0.00 | 0.00 | 99 | 1019.2 |
| 20260831114304 | 16 | 174 | 0.0 | 0.0 | 0.00 | 0.00 | 0.00 | 99 | 1019.0 |
| 20260831113800 | 16 | 174 | 0.0 | 0.0 | 0.00 | 0.00 | 0.00 | 99 | 1019.1 |
| 20260831113259 | 16 | 174 | 0.0 | 0.0 | 0.00 | 0.00 | 0.00 | 99 | 1018.6 |
| 20260831112754 | 16 | 174 | 0.0 | 0.0 | 0.00 | 0.00 | 0.00 | 99 | 1019.3 |
| 20260831112249 | 16 | 174 | 0.0 | 0.0 | 0.00 | 0.00 | 0.00 | 99 | 1018.9 |
| 20260831111745 | 16 | 174 | 0.0 | 0.0 | 0.00 | 0.00 | 0.00 | 99 | 1018.9 |
| 20260831111241 | 16 | 174 | 0.0 | 0.0 | 0.00 | 0.00 | 0.00 | 99 | 1018.7 |
| 20260831110737 | 16 | 174 | 0.0 | 0.0 | 0.00 | 0.00 | 0.00 | 99 | 1018.6 |
| 20260831110232 | 16 | 174 | 0.0 | 0.0 | 0.00 | 0.00 | 0.00 | 99 | 1018.6 |
| 20260831105730 | 15 | 174 | 0.0 | 0.0 | 0.00 | 0.00 | 0.00 | 99 | 1018.6 |
| 20260831105226 | 16 | 174 | 0.0 | 0.0 | 0.00 | 0.00 | 0.00 | 99 | 1018.5 |
| 20260831104721 | 16 | 174 | 0.0 | 0.0 | 0.00 | 0.00 | 0.00 | 99 | 1018.3 |
| 20260831104218 | 16 | 174 | 1.6 | 3.2 | 0.00 | 0.00 | 0.00 | 99 | 1018.5 |
| 20260831103717 | 16 | 174 | 1.6 | 1.6 | 0.00 | 0.00 | 0.00 | 99 | 1018.3 |
| 20260831103213 | 16 | 173 | 0.0 | 0.0 | 0.00 | 0.00 | 0.00 | 99 | 1018.1 |
| 20260831102712 | 16 | 173 | 0.0 | 1.6 | 0.00 | 0.00 | 0.00 | 99 | 1018.0 |
| 20260831102208 | 16 | 173 | 0.0 | 0.0 | 0.00 | 0.00 | 0.00 | 99 | 1018.1 |
| 20260831101703 | 16 | 173 | 0.0 | 0.0 | 0.00 | 0.00 | 0.00 | 99 | 1018.2 |
| 20260831101158 | 16 | 173 | 0.0 | 0.0 | 0.00 | 0.00 | 0.00 | 99 | 1018.2 |
| 20260831100654 | 16 | 173 | 0.0 | 0.0 | 0.00 | 0.00 | 0.00 | 99 | 1018.2 |
| 20260831100150 | 16 | 173 | 1.6 | 1.6 | 0.00 | 0.00 | 0.00 | 99 | 1018.2 |
| 20260831095648 | 16 | 178 | 0.0 | 1.6 | 0.00 | 0.00 | 0.00 | 99 | 1018.2 |
| 20260831095143 | 16 | 178 | 0.0 | 0.0 | 0.00 | 0.00 | 0.00 | 99 | 1018.2 |
| 20260831094638 | 16 | 178 | 0.0 | 0.0 | 0.00 | 0.00 | 0.00 | 99 | 1018.1 |
| 20260831094135 | 16 | 178 | 0.0 | 0.0 | 0.00 | 0.00 | 0.00 | 99 | 1018.2 |
| 20260831093630 | 16 | 178 | 0.0 | 0.0 | 0.00 | 0.00 | 0.00 | 99 | 1018.3 |
| 20260831093126 | 16 | 178 | 0.0 | 0.0 | 0.00 | 0.00 | 0.00 | 99 | 1018.1 |
| 20260831092622 | 16 | 178 | 0.0 | 0.0 | 0.00 | 0.00 | 0.00 | 99 | 1018.1 |
| 20260831092117 | 16 | 179 | 1.6 | 1.6 | 0.00 | 0.00 | 0.00 | 99 | 1018.1 |
| 20260831091617 | 16 | 164 | 0.0 | 0.0 | 0.00 | 0.00 | 0.00 | 99 | 1018.0 |
| 20260831091112 | 16 | 164 | 0.0 | 0.0 | 0.00 | 0.00 | 0.00 | 99 | 1018.3 |
| 20260831090608 | 16 | 164 | 0.0 | 0.0 | 0.00 | 0.00 | 0.00 | 99 | 1018.2 |
| 20260831090104 | 16 | 164 | 0.0 | 0.0 | 0.00 | 0.00 | 0.00 | 99 | 1018.2 |
| 20260831085559 | 16 | 164 | 0.0 | 0.0 | 0.00 | 0.00 | 0.00 | 99 | 1018.2 |
| 20260831085054 | 16 | 164 | 0.0 | 0.0 | 0.00 | 0.00 | 0.00 | 99 | 1018.3 |
| 20260831084550 | 16 | 164 | 0.0 | 0.0 | 0.00 | 0.00 | 0.00 | 99 | 1018.1 |
| 20260831084046 | 16 | 164 | 0.0 | 0.0 | 0.00 | 0.00 | 0.00 | 99 | 1018.3 |
| 20260831083541 | 16 | 164 | 0.0 | 0.0 | 0.00 | 0.00 | 0.00 | 99 | 1018.1 |
| 20260831083036 | 16 | 164 | 0.0 | 0.0 | 0.00 | 0.00 | 0.00 | 99 | 1018.1 |
| 20260831082529 | 16 | 164 | 0.0 | 0.0 | 0.00 | 0.00 | 0.00 | 99 | 1018.3 |
| 20260831082024 | 17 | 164 | 0.0 | 0.0 | 0.00 | 0.00 | 0.00 | 99 | 1018.4 |
| 20260831081520 | 17 | 164 | 0.0 | 0.0 | 0.00 | 0.00 | 0.00 | 99 | 1018.2 |
| 20260831081016 | 17 | 164 | 0.0 | 0.0 | 0.00 | 0.00 | 0.00 | 98 | 1018.3 |
| 20260831080510 | 17 | 164 | 0.0 | 0.0 | 0.00 | 0.00 | 0.00 | 98 | 1018.0 |
| 20260831080007 | 17 | 164 | 0.0 | 0.0 | 0.00 | 0.00 | 0.00 | 98 | 1018.0 |
| 20260831075501 | 17 | 164 | 0.0 | 0.0 | 0.00 | 0.00 | 0.00 | 98 | 1018.0 |
| 20260831074957 | 17 | 164 | 0.0 | 0.0 | 0.00 | 0.00 | 0.00 | 98 | 1018.1 |
| 20260831074456 | 17 | 164 | 0.0 | 0.0 | 0.00 | 0.00 | 0.00 | 97 | 1018.2 |
| 20260831073951 | 17 | 164 | 0.0 | 0.0 | 0.00 | 0.00 | 0.00 | 98 | 1018.0 |
| 20260831073450 | 17 | 164 | 0.0 | 0.0 | 0.00 | 0.00 | 0.00 | 98 | 1017.9 |
| 20260831072949 | 17 | 164 | 0.0 | 0.0 | 0.00 | 0.00 | 0.00 | 97 | 1018.1 |
| 20260831072445 | 17 | 164 | 0.0 | 0.0 | 0.00 | 0.00 | 0.00 | 97 | 1017.9 |
| 20260831071942 | 17 | 164 | 0.0 | 0.0 | 0.00 | 0.00 | 0.00 | 97 | 1018.1 |
| 20260831071441 | 17 | 164 | 0.0 | 0.0 | 0.00 | 0.00 | 0.00 | 97 | 1018.2 |
| 20260831070935 | 17 | 165 | 0.0 | 0.0 | 0.00 | 0.00 | 0.00 | 97 | 1018.2 |
| 20260831070430 | 17 | 165 | 0.0 | 0.0 | 0.00 | 0.00 | 0.00 | 97 | 1018.2 |
| 20260831065929 | 17 | 165 | 0.0 | 0.0 | 0.00 | 0.00 | 0.00 | 97 | 1018.0 |
| 20260831065427 | 17 | 165 | 0.0 | 0.0 | 0.00 | 0.00 | 0.00 | 98 | 1018.0 |
| 20260831064922 | 17 | 165 | 0.0 | 0.0 | 0.00 | 0.00 | 0.00 | 98 | 1017.9 |
| 20260831064417 | 17 | 165 | 0.0 | 0.0 | 0.00 | 0.00 | 0.00 | 98 | 1018.0 |
| 20260831063913 | 17 | 165 | 0.0 | 0.0 | 0.00 | 0.00 | 0.00 | 98 | 1018.2 |
| 20260831063408 | 17 | 165 | 0.0 | 0.0 | 0.00 | 0.00 | 0.00 | 98 | 1018.2 |
| 20260831062902 | 17 | 165 | 0.0 | 0.0 | 0.00 | 0.00 | 0.00 | 98 | 1018.2 |
| 20260831062357 | 17 | 165 | 0.0 | 0.0 | 0.00 | 0.00 | 0.00 | 99 | 1018.0 |
| 20260831061855 | 17 | 165 | 0.0 | 0.0 | 0.00 | 0.00 | 0.00 | 99 | 1018.0 |
| 20260831061349 | 17 | 165 | 0.0 | 0.0 | 0.00 | 0.00 | 0.00 | 99 | 1018.2 |
| 20260831060846 | 17 | 165 | 0.0 | 0.0 | 0.00 | 0.00 | 0.00 | 99 | 1018.1 |
| 20260831060345 | 17 | 165 | 0.0 | 0.0 | 0.00 | 0.00 | 0.00 | 99 | 1018.2 |
| 20260831055839 | 17 | 165 | 0.0 | 0.0 | 0.00 | 0.00 | 0.00 | 99 | 1018.2 |
| 20260831055335 | 17 | 165 | 0.0 | 0.0 | 0.00 | 0.00 | 0.00 | 99 | 1018.3 |
| 20260831054830 | 17 | 165 | 0.0 | 0.0 | 0.00 | 0.00 | 0.00 | 99 | 1018.3 |
| 20260831054325 | 17 | 165 | 0.0 | 0.0 | 0.00 | 0.00 | 0.00 | 99 | 1018.3 |
| 20260831053823 | 17 | 165 | 0.0 | 0.0 | 0.00 | 0.00 | 0.00 | 99 | 1018.1 |
| 20260831053317 | 17 | 165 | 0.0 | 0.0 | 0.00 | 0.00 | 0.00 | 98 | 1018.2 |
| 20260831052812 | 17 | 165 | 0.0 | 0.0 | 0.00 | 0.00 | 0.00 | 98 | 1018.3 |
| 20260831052311 | 17 | 165 | 0.0 | 0.0 | 0.00 | 0.00 | 0.00 | 98 | 1018.0 |
| 20260831051809 | 17 | 165 | 0.0 | 0.0 | 0.00 | 0.00 | 0.00 | 98 | 1018.2 |
| 20260831051308 | 17 | 165 | 0.0 | 0.0 | 0.00 | 0.00 | 0.00 | 98 | 1018.1 |
| 20260831050803 | 17 | 165 | 0.0 | 0.0 | 0.00 | 0.00 | 0.00 | 97 | 1018.3 |
| 20260831050301 | 17 | 165 | 0.0 | 0.0 | 0.00 | 0.00 | 0.00 | 97 | 1018.2 |
| 20260831045750 | 17 | 165 | 0.0 | 0.0 | 0.00 | 0.00 | 0.00 | 97 | 1018.2 |
| 20260831045245 | 17 | 165 | 0.0 | 0.0 | 0.00 | 0.00 | 0.00 | 97 | 1018.0 |
| 20260831044740 | 18 | 165 | 0.0 | 0.0 | 0.00 | 0.00 | 0.00 | 96 | 1018.2 |
| 20260831044234 | 18 | 182 | 0.0 | 0.0 | 0.00 | 0.00 | 0.00 | 97 | 1018.0 |
| 20260831043731 | 18 | 182 | 0.0 | 0.0 | 0.00 | 0.00 | 0.00 | 97 | 1018.3 |
| 20260831043231 | 18 | 182 | 1.6 | 1.6 | 0.00 | 0.00 | 0.00 | 97 | 1018.3 |
| 20260831042725 | 18 | 182 | 0.0 | 0.0 | 0.00 | 0.00 | 0.00 | 96 | 1018.2 |
| 20260831042220 | 18 | 194 | 0.0 | 0.0 | 0.00 | 0.00 | 0.00 | 97 | 1018.2 |
| 20260831041715 | 18 | 194 | 0.0 | 0.0 | 0.00 | 0.00 | 0.00 | 97 | 1018.3 |
| 20260831041214 | 18 | 194 | 0.0 | 0.0 | 0.00 | 0.00 | 0.00 | 97 | 1018.4 |
| 20260831040709 | 18 | 194 | 0.0 | 0.0 | 0.00 | 0.00 | 0.00 | 98 | 1018.2 |
| 20260831040208 | 18 | 193 | 0.0 | 0.0 | 0.00 | 0.00 | 0.00 | 98 | 1018.1 |
| 20260831035706 | 18 | 183 | 1.6 | 1.6 | 0.00 | 0.00 | 0.00 | 98 | 1018.3 |
| 20260831035156 | 18 | 195 | 1.6 | 1.6 | 0.00 | 0.00 | 0.00 | 98 | 1018.5 |
| 20260831034655 | 18 | 195 | 0.0 | 0.0 | 0.00 | 0.00 | 0.00 | 99 | 1018.3 |
| 20260831034150 | 18 | 195 | 0.0 | 0.0 | 0.00 | 0.00 | 0.00 | 98 | 1018.1 |
| 20260831033646 | 18 | 195 | 0.0 | 0.0 | 0.00 | 0.00 | 0.00 | 98 | 1018.2 |
| 20260831033140 | 18 | 195 | 1.6 | 3.2 | 0.00 | 0.00 | 0.00 | 98 | 1018.1 |
| 20260831032640 | 18 | 195 | 0.0 | 1.6 | 0.00 | 0.00 | 0.00 | 98 | 1018.1 |
| 20260831032136 | 18 | 195 | 0.0 | 0.0 | 0.00 | 0.00 | 0.00 | 98 | 1018.4 |
| 20260831031636 | 18 | 195 | 0.0 | 0.0 | 0.00 | 0.00 | 0.00 | 98 | 1018.4 |
| 20260831031135 | 18 | 195 | 0.0 | 0.0 | 0.00 | 0.00 | 0.00 | 98 | 1018.4 |
| 20260831030634 | 18 | 195 | 0.0 | 0.0 | 0.00 | 0.00 | 0.00 | 98 | 1018.0 |
| 20260831030133 | 18 | 195 | 0.0 | 1.6 | 0.00 | 0.00 | 0.00 | 98 | 1018.4 |
| 20260831025632 | 18 | 195 | 0.0 | 0.0 | 0.00 | 0.00 | 0.00 | 99 | 1018.3 |
| 20260831025127 | 18 | 195 | 0.0 | 1.6 | 0.00 | 0.00 | 0.00 | 99 | 1018.1 |
| 20260831024623 | 18 | 195 | 0.0 | 0.0 | 0.00 | 0.00 | 0.00 | 99 | 1018.4 |
| 20260831024122 | 18 | 194 | 0.0 | 0.0 | 0.00 | 0.00 | 0.00 | 98 | 1018.3 |
| 20260831023620 | 18 | 194 | 0.0 | 0.0 | 0.00 | 0.00 | 0.00 | 98 | 1018.4 |
| 20260831023120 | 18 | 194 | 0.0 | 0.0 | 0.00 | 0.00 | 0.00 | 98 | 1018.2 |
| 20260831022615 | 18 | 195 | 0.0 | 1.6 | 0.00 | 0.00 | 0.00 | 98 | 1018.6 |
| 20260831022110 | 18 | 195 | 0.0 | 0.0 | 0.00 | 0.00 | 0.00 | 98 | 1018.4 |
| 20260831021609 | 18 | 195 | 0.0 | 0.0 | 0.00 | 0.00 | 0.00 | 97 | 1018.5 |
| 20260831021104 | 18 | 195 | 0.0 | 0.0 | 0.00 | 0.00 | 0.00 | 97 | 1018.3 |
| 20260831020559 | 18 | 195 | 1.6 | 1.6 | 0.00 | 0.00 | 0.00 | 97 | 1018.6 |
| 20260831020054 | 18 | 195 | 0.0 | 0.0 | 0.00 | 0.00 | 0.00 | 97 | 1018.2 |
| 20260831015550 | 18 | 195 | 0.0 | 0.0 | 0.00 | 0.00 | 0.00 | 96 | 1018.5 |